Shannon, Ireland

5:58 AM IST on April 27, 2018 (GMT +0100)
Shannon

Weather History for EINN - October, 2013

Change the Weather History Date:

Friday, October 11, 2013

  Actual Average Record
Temperature  
Mean Temperature 46 °F -  
Max Temperature 58 °F 55 °F 68 °F (2001)
Min Temperature 35 °F 44 °F 35 °F (2013)
Degree Days  
Heating Degree Days 18    
Moisture  
Dew Point 41 °F    
Average Humidity 84    
Maximum Humidity 100    
Minimum Humidity 57    
Precipitation  
Precipitation 0.00 in 0.12 in - ()
Sea Level Pressure  
Sea Level Pressure 30.38 in    
Wind  
Wind Speed 6 mph ()    
Max Wind Speed 17 mph    
Max Gust Speed -    
Visibility 7.3 miles    
Events      
Averages and records for this station are not official NWS values.
T = Trace of Precipitation, MM = Missing Value Source: Averaged Metar Reports

Daily Weather History Graph

Daily Weather History Graph

Search for Another Location

Airport or City:

Astronomy

Oct. 11, 2013 Rise Set
Actual Time 7:54 AM IST 6:49 PM IST
Civil Twilight 7:20 AM IST 7:23 PM IST
Nautical Twilight 6:40 AM IST 8:03 PM IST
Astronomical Twilight 6:00 AM IST 8:43 PM IST
Moon 2:52 PM IST (10/11) 11:54 PM IST (10/11)
Length of Visible Light 12h 03m
Length of Day
10h 54m
Waxing Crescent, 44% of the Moon is Illuminated
Oct 11
Waxing Crescent
Oct 12
First Quarter
Oct 19
Full
Oct 27
Last Quarter
Nov 3
New

Hourly Weather History & Observations

Time (IST) Temp. Windchill Dew Point Humidity Pressure Visibility Wind Dir Wind Speed Gust Speed Precip Events Conditions
12:00 AM 39.2 °F 34.2 °F 35.6 °F 87% 30.42 in - NNE 6.9 mph - N/A   Clear
12:30 AM 39.2 °F 34.2 °F 37.4 °F 93% 30.42 in - North 6.9 mph - N/A   Clear
1:00 AM 39 °F - 37 °F 88% 30.43 in 16 mi NNE 4.5 mph - -  
1:00 AM 39.2 °F 37.0 °F 37.4 °F 93% 30.42 in - NNE 3.5 mph - N/A   Clear
1:30 AM 39.2 °F - 37.4 °F 93% 30.42 in - SE 2.3 mph - N/A   Clear
2:00 AM 37.4 °F 34.9 °F 35.6 °F 93% 30.42 in - NNE 3.5 mph - N/A   Clear
2:30 AM 37.4 °F 34.9 °F 37.4 °F 100% 30.39 in - NNW 3.5 mph - N/A   Clear
3:00 AM 37.4 °F - 35.6 °F 93% 30.39 in - NNE 1.2 mph - N/A   Clear
3:30 AM 37.4 °F - 35.6 °F 93% 30.39 in - WSW 2.3 mph - N/A   Clear
4:00 AM 37.4 °F - 35.6 °F 93% 30.39 in - WNW 2.3 mph - N/A   Clear
4:30 AM 35.6 °F 31.7 °F 35.6 °F 100% 30.39 in - West 4.6 mph - N/A   Clear
5:00 AM 35.6 °F - 35.6 °F 100% 30.39 in - NNW 2.3 mph - N/A   Clear
5:30 AM 35.6 °F 31.7 °F 35.6 °F 100% 30.39 in - NNE 4.6 mph - N/A   Clear
6:00 AM 37.4 °F 30.8 °F 37.4 °F 100% 30.39 in - NE 9.2 mph - N/A   Clear
6:30 AM 39.2 °F 33.6 °F 37.4 °F 93% 30.39 in - NE 8.1 mph - N/A   Clear
7:00 AM 38 °F - 36 °F 92% 30.41 in 19 mi NNE 6.7 mph - -  
7:00 AM 37.4 °F 32.1 °F 37.4 °F 100% 30.39 in - NNE 6.9 mph - N/A   Clear
7:30 AM 37.4 °F 32.8 °F 37.4 °F 100% 30.39 in - North 5.8 mph - N/A   Clear
8:00 AM 37.4 °F 32.1 °F 35.6 °F 93% 30.39 in 6.2 mi North 6.9 mph - N/A   Partly Cloudy
8:30 AM 35.6 °F 29.9 °F 35.6 °F 100% 30.39 in 6.2 mi NNW 6.9 mph - N/A   Partly Cloudy
9:00 AM 37.4 °F - 35.6 °F 93% 30.42 in 6.2 mi West 2.3 mph - N/A   Partly Cloudy
9:30 AM 39.2 °F - 37.4 °F 93% 30.42 in 6.2 mi West 1.2 mph - N/A   Partly Cloudy
10:00 AM 42.8 °F 39.3 °F 39.2 °F 87% 30.42 in 6.2 mi NNE 5.8 mph - N/A   Partly Cloudy
10:30 AM 46.4 °F 42.4 °F 41.0 °F 81% 30.39 in 6.2 mi NE 8.1 mph - N/A   Partly Cloudy
11:00 AM 46.4 °F 41.9 °F 41.0 °F 81% 30.39 in 6.2 mi NNE 9.2 mph - N/A   Partly Cloudy
11:30 AM 48.2 °F - 42.8 °F 82% 30.39 in 6.2 mi NNE 9.2 mph - N/A   Partly Cloudy
12:00 PM 50.0 °F - 42.8 °F 76% 30.39 in 6.2 mi ENE 11.5 mph - N/A   Partly Cloudy
12:30 PM 51.8 °F - 42.8 °F 71% 30.39 in 6.2 mi ENE 17.3 mph - N/A   Partly Cloudy
1:00 PM 53 °F - 42 °F 57% 30.39 in 25 mi ENE 15.7 mph - -   Scattered Clouds
1:00 PM 53.6 °F - 42.8 °F 67% 30.39 in 6.2 mi ENE 15.0 mph - N/A   Partly Cloudy
1:30 PM 53.6 °F - 42.8 °F 67% 30.39 in 6.2 mi ENE 15.0 mph - N/A   Partly Cloudy
2:00 PM 55.4 °F - 42.8 °F 63% 30.36 in 6.2 mi NE 13.8 mph - N/A   Partly Cloudy
2:30 PM 55.4 °F - 44.6 °F 67% 30.36 in 6.2 mi NE 12.7 mph - N/A   Partly Cloudy
3:00 PM 55.4 °F - 44.6 °F 67% 30.36 in 6.2 mi ENE 8.1 mph - N/A   Partly Cloudy
3:30 PM 57.2 °F - 46.4 °F 67% 30.36 in 6.2 mi East 10.4 mph - N/A   Partly Cloudy
4:00 PM 57.2 °F - 46.4 °F 67% 30.36 in 6.2 mi ENE 10.4 mph - N/A   Partly Cloudy
4:30 PM 59.0 °F - 44.6 °F 59% 30.36 in 6.2 mi East 9.2 mph - N/A   Scattered Clouds
5:00 PM 57.2 °F - 46.4 °F 67% 30.36 in 6.2 mi ESE 11.5 mph - N/A   Scattered Clouds
5:30 PM 57.2 °F - 46.4 °F 67% 30.36 in 6.2 mi East 9.2 mph - N/A   Partly Cloudy
6:00 PM 57.2 °F - 46.4 °F 67% 30.36 in 6.2 mi East 6.9 mph - N/A   Partly Cloudy
6:30 PM 55.4 °F - 46.4 °F 72% 30.36 in 6.2 mi NE 6.9 mph - N/A   Partly Cloudy
7:00 PM 52 °F - 45 °F 70% 30.38 in 16 mi NE 6.7 mph - -   Scattered Clouds
7:00 PM 51.8 °F - 44.6 °F 76% 30.36 in 6.2 mi NE 5.8 mph - N/A   Partly Cloudy
7:30 PM 50.0 °F - 44.6 °F 82% 30.36 in 6.2 mi NE 9.2 mph - N/A   Partly Cloudy
8:00 PM 48.2 °F - 42.8 °F 82% 30.36 in - NNE 8.1 mph - N/A   Clear
8:30 PM 48.2 °F - 44.6 °F 87% 30.36 in - NNE 8.1 mph - N/A   Clear
9:00 PM 48.2 °F - 44.6 °F 87% 30.36 in - NNE 8.1 mph - N/A   Clear
9:30 PM 46.4 °F 42.4 °F 44.6 °F 93% 30.36 in - North 8.1 mph - N/A   Clear
10:00 PM 46.4 °F 43.5 °F 44.6 °F 93% 30.36 in - NNE 5.8 mph - N/A   Clear
10:30 PM 44.6 °F 42.2 °F 42.8 °F 93% 30.36 in - NNE 4.6 mph - N/A   Clear
11:00 PM 46.4 °F 43.5 °F 44.6 °F 93% 30.36 in 6.2 mi North 5.8 mph - N/A   Partly Cloudy
11:30 PM 44.6 °F 40.7 °F 42.8 °F 93% 30.36 in 6.2 mi NNE 6.9 mph - N/A   Partly Cloudy